Weather in Zhdanovsky

Russia / Nizhny Novgorod Oblast'     56°12′37″N   44°06′05″E
temp.,
°C
wind,
m/s
gust,
m/s
humid.,
%
clouds,
%
prec.,
mm/h
press.,
hPa
HPBL,
m
4 july, mon
mon400:00+14nne2281100 0.0 101563
03:00+13nne248757 0.0 1015104
06:00+15ne247997 0.0 1016211
09:00+20ne345542 0.0 10161051
12:00+23nne34378 0.0 10151869
15:00+25n35345 0.0 10152325
18:00+24nnw464330 0.0 1014751
21:00+18ene256396 0.0 1015120
5 july, tue
tue500:00+16se237222 0.0 101784
03:00+14ese117349 0.0 101713
06:00+16ese236393 0.0 1018149
09:00+21ese224626 0.0 1018807
12:00+24se22355 0.0 10181563
15:00+25s32352 0.0 10171687
18:00+23s33461 0.0 1017727
21:00+18s37650 0.0 1016165
6 july, wed
wed600:00+16ssw39665 0.0 1017213
03:00+15ssw377372 0.0 1017152
06:00+17sw496997 0.0 1017273
09:00+22sw465490 0.0 1016580
12:00+27sw464531 0.0 10161358
15:00+29sw454034 0.0 10142137
18:00+25sw236096 0.1 101494
21:00+21wsw257270 0.1 1014132
7 july, thu
thu700:00+19ssw278791 0.3 1014154
03:00+18s27946 1.2 1014170
06:00+20ssw398719 0.0 1014277
09:00+26sw465915 0.0 1014702
12:00+29sw5746100 0.0 10141640
15:00+30wsw57437 0.0 10131992
18:00+25w71065100 0.4 1014565
21:00+20nnw139168 6.9 1016120
8 july, fri
fri800:00+19wsw1191100 0.5 101647
03:00+18sw119292 0.8 101613
06:00+19se00895 0.8 1017123
09:00+23sw117616 1.5 1017563
12:00+27sw23563 0.0 10161289
15:00+29wsw354915 0.1 10151979
18:00+21ne249692 16.6 1016143
21:00+21wsw23895 17.1 101549